Regional Weather Roundup
Issued by NWS

Home | Current Version | Previous Version | Text Only | Print | Product List | Glossary On
Versions: 1 2 3 4 5 6 7 8 9 10 11 12 13 14 15 16 17 18 19 20 21 22 23 24 25 26 27 28 29 30 31 32 33 34 35 36 37 38 39 40 41 42 43 44 45 46 47 48 49 50
000
ASUS44 KOUN 292100
RWROK

WEATHER ROUNDUP FOR OKLAHOMA
NATIONAL WEATHER SERVICE NORMAN OK
400 PM CDT SAT AUG 29 2015

NOTE: "FAIR" INDICATES FEW OR NO CLOUDS BELOW 12,000 FEET WITH NO
      SIGNIFICANT WEATHER AND/OR OBSTRUCTIONS TO VISIBILITY.

OKZ001>007-009>012-014-015-017-292200-
NORTHWEST OKLAHOMA AND THE PANHANDLE

CITY           SKY/WX    TMP DP  RH WIND       PRES   REMARKS
GAGE           FAIR      90  51  26 N12G22    30.05F
GUYMON         FAIR      90  47  22 NE9       30.11F
$$

OKZ016-021>023-033>039-044-045-292200-
SOUTHWEST OKLAHOMA

CITY           SKY/WX    TMP DP  RH WIND       PRES   REMARKS
LAWTON/REGL    FAIR      91  65  41 E9        29.96F HX  93
LAWTON/FT SILL FAIR      93  69  45 NE5       29.95F HX  98
FREDERICK      FAIR      92  65  40 NE3       29.94F HX  94
CLINTON        FAIR      92  55  28 N10       30.03F HX  90
HOBART         FAIR      93  60  33 CALM      30.00F HX  93
ALTUS AFB      FAIR      95  63  34 VRB6      29.97F HX  96
$$

OKZ018>020-024>031-292200-
CENTRAL OKLAHOMA

CITY           SKY/WX    TMP DP  RH WIND       PRES   REMARKS
OKLAHOMA CITY  FAIR      91  65  41 N7        29.98F HX  93
OKC/WILEY POST FAIR      89  62  40 N9        29.98F
STILLWATER     FAIR      87  64  46 N7        29.98F
GUTHRIE        FAIR      90  60  36 NW8       29.98F
$$

OKZ008-013-054>072-292200-
NORTHEAST OKLAHOMA

CITY           SKY/WX    TMP DP  RH WIND       PRES   REMARKS
TULSA          FAIR      85  72  65 N10       29.95F HX  91
TULSA/JONES    FAIR      86  71  60 N6        29.96F HX  91
PONCA CITY     PTSUNNY   82  65  56 VRB3      29.99F
BARTLESVILLE   PTSUNNY   83  67  58 NE7       29.99F
MUSKOGEE       FAIR      88  71  57 S3        29.96F HX  94
$$

OKZ032-040>043-046>053-073>077-292200-
SOUTH CENTRAL/SOUTHEAST OKLAHOMA

CITY           SKY/WX    TMP DP  RH WIND       PRES   REMARKS
MCALESTER      FAIR      86  69  56 VRB6      29.97F HX  90
$$



USA.gov is the U.S. government's official web portal to all federal, state and local government web resources and services.